STARLINK-2292, 48023

Orbit data source: Space-Track

STARLINK-2292, 48023 is a payload satellite owned by SpaceX/Seattle (US) in LEO that was launched on Wed, 24 Mar 2021 UTC via an FALCON 9 launch vehicle from the Air Force Eastern Test Range (AFETR). Payload-class satellites include a variety of spacecraft equipped with specific instruments for various scientific and technological missions. These include communications satellites like Starlink; space stations such as the ISS; scientific satellites like the Hubble; Earth observation satellites from companies like Planet Labs, Umbra, and HawkEye 360; GPS; miniature CubeSats for education and research; and military/defense satellites.

Loading next visibility...
Identifier
48023, 2021-024AY
Orbit
LEO
Country
Flag of USUS
Related business
Manufacturer
SpaceX/Seattle
Mission
Partially operational Commercial Communications
Bus & Motor
STARLINK, Unknown motor
Mass
260 kg wet, ~248 kg dry
Launch date (UTC)
2021-03-24 (5 years ago)
Launch vehicle
FALCON 9
Launch site
Air Force Eastern Test Range (AFETR)
Object type
Payload
Rocket body
Debris
Shape & HBR
Box + 1 Pan, 10.1 m
Radar Cross Section
13.562 m², Large (>1 m²)

Expand to show TLE details & history
Last TLE update: 18 hours ago

TLE from 18 hours ago
0 STARLINK-2292
1 48023U 21024AY  26175.20871029  .00046024  00000-0  98007-3 0  9999
2 48023  53.1157 190.9528 0006086   8.2094 351.9011 15.44495742291016
Epoch: 2026-06-24T05:00Z
TLE epoch observation values (Epoch: 2026-06-24T05:00:32.569Z)
Latitude
0.00001°
Longitude
-156.55211°
Altitude
429.657 km
Speed
7.657 km/s
True Right ascension
12h 43m 48s
True Declination
0° 00' 00"
Sunlit
Object was in daylight at epoch
Visualization orbit readout
Latitude
Unknown
Longitude
Unknown
Altitude
Unknown
Speed
Unknown
Apparent Right ascension
Unknown
Apparent Declination
Unknown
Sunlit
N/A
Visualization observer readout
Local Sidereal Time
10:19:09
Azimuth
Unknown
Elevation
Unknown
Doppler factor
Unknown
Orbital elements
Apogee altitude
437.271 km
Perigee altitude
428.98 km
Semi-major axis
6,811.262 km
Eccentricity
0.00061
Inclination
53.1157°
RAAN
190.9528°
Arg. of periapsis
8.2094°
True anomaly
351.89127°
Mean anomaly
351.9011°
Eccentric anomaly
351.89618°
Mean motion
3.86102 °/min
Orbital period
93.24 mins
BSTAR
0.00098007
Loading maneuver chart data...
Computing Atmospheric mass density...

Documentation

Showing up to 5 results
|